Weather History for Toledo, OH

Change the Weather History Date:

Tuesday, January 1, 2013

  Actual Average Record
Temperature  
Mean Temperature 20 °F 26 °F  
Max Temperature 31 °F 33 °F 66 °F (1876)
Min Temperature 9 °F 19 °F -15 °F (1879)
Degree Days  
Heating Degree Days 45 39  
Month to date heating degree days 45 39  
Since 1 July heating degree days 2296 2364  
Cooling Degree Days 0 0  
Month to date cooling degree days 0 0  
Year to date cooling degree days 0 0  
Moisture  
Dew Point 13 °F    
Average Humidity 71    
Maximum Humidity 92    
Minimum Humidity 50    
Precipitation  
Precipitation 0.00 in 0.08 in 1.30 in (1985)
Month to date precipitation 0.00 0.08  
Year to date precipitation 0.00 0.08  
Snow  
Snow 0.00 in 0.30 in - ()
Month to date snowfall 0.0 0.3  
Since 1 July snowfall 7.0 9.8  
Snow Depth 3.00 in    
Sea Level Pressure  
Sea Level Pressure 30.11 in    
Wind  
Wind Speed 5 mph (NNW)    
Max Wind Speed 15 mph    
Max Gust Speed 18 mph    
Visibility 10 miles    
Events      
T = Trace of Precipitation, MM = Missing Value Source: NWS Daily Summary

Daily Weather History Graph

Daily Weather History Graph

Search for Another Location

Airport:

Trip Planner

Search our weather history database for the weather conditions in past years. The results will help you decide how hot, cold, wet, or windy it might be!

Date:

Astronomy

Jan. 01, 2013 Rise Set
Actual Time 8:02 AM EST 5:16 PM EST
Civil Twilight 7:30 AM EST 5:47 PM EST
Nautical Twilight 6:55 AM EST 6:22 PM EST
Astronomical Twilight 6:22 AM EST 6:55 PM EST
Moon 9:49 PM EST (1/1) 10:10 AM EST (1/1)
Length of Visible Light 10h 16m
Length of Day
9h 14m
Waning Gibbous, 83% of the Moon is Illuminated
Jan 1
Waning Gibbous
Jan 4
Last Quarter
Jan 11
New
Jan 18
First Quarter
Jan 26
Full

Hourly Weather History & Observations

Time (EST) Temp. Windchill Dew Point Humidity Pressure Visibility Wind Dir Wind Speed Gust Speed Precip Events Conditions
12:52 AM 30.0 °F 23.2 °F 24.1 °F 79% 30.06 in 7.0 mi NNW 6.9 mph - N/A   Overcast
1:40 AM 28.4 °F 23.3 °F 21.2 °F 74% 30.02 in 10.0 mi NNW 4.6 mph - N/A   Overcast
1:52 AM 28.9 °F 21.9 °F 21.0 °F 72% 30.04 in 10.0 mi NNW 6.9 mph - N/A   Overcast
2:52 AM 28.0 °F 21.7 °F 18.0 °F 66% 30.06 in 10.0 mi WNW 5.8 mph - N/A   Overcast
3:52 AM 27.0 °F 19.5 °F 18.0 °F 69% 30.06 in 10.0 mi WNW 6.9 mph - N/A   Overcast
4:52 AM 26.1 °F 19.4 °F 18.0 °F 71% 30.06 in 10.0 mi NW 5.8 mph - N/A   Overcast
5:52 AM 26.1 °F 18.4 °F 19.0 °F 75% 30.07 in 10.0 mi NNW 6.9 mph - N/A   Overcast
6:52 AM 25.0 °F 18.1 °F 15.1 °F 66% 30.07 in 10.0 mi NNW 5.8 mph - N/A   Overcast
7:52 AM 24.1 °F 17.0 °F 15.1 °F 69% 30.12 in 10.0 mi North 5.8 mph - N/A   Overcast
8:52 AM 21.9 °F 15.7 °F 14.0 °F 72% 30.14 in 10.0 mi NNW 4.6 mph - N/A   Overcast
9:52 AM 21.9 °F 13.4 °F 12.9 °F 68% 30.16 in 10.0 mi North 6.9 mph - N/A   Mostly Cloudy
10:52 AM 24.1 °F 12.5 °F 12.0 °F 60% 30.14 in 10.0 mi North 12.7 mph - N/A   Clear
11:52 AM 24.1 °F 13.7 °F 12.0 °F 60% 30.14 in 10.0 mi NNE 10.4 mph 17.3 mph N/A   Clear
12:52 PM 23.0 °F 15.8 °F 10.9 °F 60% 30.14 in 10.0 mi Variable 5.8 mph - N/A   Partly Cloudy
1:52 PM 24.1 °F 15.2 °F 12.0 °F 60% 30.11 in 10.0 mi WNW 8.1 mph - N/A   Overcast
2:52 PM 24.1 °F 17.0 °F 12.0 °F 60% 30.11 in 10.0 mi Variable 5.8 mph - N/A   Mostly Cloudy
3:52 PM 24.1 °F 13.7 °F 9.0 °F 53% 30.12 in 10.0 mi NW 10.4 mph - N/A   Clear
4:52 PM 21.9 °F 13.4 °F 7.0 °F 53% 30.13 in 10.0 mi NNW 6.9 mph - N/A   Clear
5:52 PM 19.9 °F - 7.0 °F 57% 30.13 in 10.0 mi Calm Calm - N/A   Clear
6:52 PM 14.0 °F - 7.0 °F 74% 30.13 in 10.0 mi Calm Calm - N/A   Clear
7:52 PM 12.0 °F - 7.0 °F 80% 30.13 in 10.0 mi Calm Calm - N/A   Clear
8:52 PM 9.0 °F - 6.1 °F 88% 30.15 in 10.0 mi Calm Calm - N/A   Mostly Cloudy
9:52 PM 10.9 °F - 7.0 °F 84% 30.15 in 7.0 mi Calm Calm - N/A   Overcast
10:52 PM 15.1 °F - 10.0 °F 80% 30.14 in 7.0 mi Calm Calm - N/A   Overcast
11:52 PM 17.1 °F 11.7 °F 10.0 °F 74% 30.14 in 10.0 mi SW 3.5 mph - N/A   Clear